This is the latest recevied weather packets stored in our database for station/object W4GAP. If no packets are shown the sender has not sent any weather packets the latest 10 day(s).
| Time | Temp. | Humidity | Pressure | Rain* | Wind** | Luminosity | Snow |
|---|---|---|---|---|---|---|---|
| 1777478157 | 22.22° C | 83% | 1010.7 hPa | 0 mm | - | 749 W/m² | - |
| 1777477854 | 21.67° C | 84% | 1011 hPa | 0 mm | - | 107 W/m² | - |
| 1777477549 | 21.67° C | 85% | 1010.9 hPa | 0 mm | - | 262 W/m² | - |
| 1777477246 | 21.11° C | 86% | 1010.8 hPa | 0 mm | - | 223 W/m² | - |
| 1777476942 | 21.67° C | 86% | 1011 hPa | 0 mm | - | 102 W/m² | - |
| 1777476641 | 21.11° C | 88% | 1011.2 hPa | 0 mm | - | 130 W/m² | - |
| 1777476337 | 21.11° C | 88% | 1011.3 hPa | 0 mm | - | 117 W/m² | - |
| 1777476032 | 21.11° C | 87% | 1011.3 hPa | 0 mm | - | 114 W/m² | - |
| 1777475728 | 20.56° C | 88% | 1011.4 hPa | 0 mm | - | 92 W/m² | - |
| 1777475425 | 20.56° C | 88% | 1011.2 hPa | 0 mm | - | 120 W/m² | - |
| 1777475120 | 20.56° C | 88% | 1011.5 hPa | 0 mm | - | 89 W/m² | - |
| 1777474817 | 20° C | 90% | 1011.4 hPa | 0 mm | - | 166 W/m² | - |
| 1777474513 | 20° C | 91% | 1011.3 hPa | 0 mm | - | 81 W/m² | - |
| 1777474210 | 19.44° C | 92% | 1011.6 hPa | 0 mm | - | 78 W/m² | - |
| 1777473907 | 19.44° C | 91% | 1011.6 hPa | 0 mm | - | 102 W/m² | - |
| 1777473605 | 19.44° C | 92% | 1011.7 hPa | 0 mm | - | 102 W/m² | - |
| 1777473301 | 18.89° C | 93% | 1011.6 hPa | 0 mm | - | 85 W/m² | - |
| 1777472996 | 18.89° C | 94% | 1011.5 hPa | 0 mm | - | 70 W/m² | - |
| 1777472693 | 18.89° C | 94% | 1011.4 hPa | 0 mm | - | 59 W/m² | - |
| 1777472389 | 18.33° C | 95% | 1011.2 hPa | 0 mm | - | 69 W/m² | - |
| 1777472087 | 18.33° C | 95% | 1011.2 hPa | 0 mm | - | 56 W/m² | - |
| 1777471782 | 18.33° C | 95% | 1010.8 hPa | 0 mm | - | 57 W/m² | - |
| 1777471479 | 17.78° C | 95% | 1010.6 hPa | 0 mm | - | 42 W/m² | - |
| 1777471176 | 17.78° C | 96% | 1010.5 hPa | 0 mm | - | 31 W/m² | - |
| 1777470873 | 17.78° C | 96% | 1010.8 hPa | 0 mm | - | 39 W/m² | - |
* Rain latest hour (hover to see other rain measurements)
** Current wind speed in m/s (hover to see current wind gust speed)